Temp
6 6 6 6 6 5 5 5 4 4 4 6 6 6 6 6 6 5 5 5 4 4 4 4 3 3 2 3 2 1 2 2 2 2 2 2 3 3
5 6 6 6 5 5 5 5 4 3 3 5 6 6 6 6 6 5 5 4 4 4 4 4 4 4 3 3 2 2 2 3 2 2 2 2 3 3
4 5 5 5 5 5 4 4 4 3 4 5 5 5 5 6 5 4 4 3 3 4 3 2 2 2 3 2 2 1 2 2 1 1 1 2 2 2
3 4 4 4 4 2 4 3 3 4 4 5 5 5 5 5 5 4 4 4 4 3 2 3 3 3 3 3 3 2 2 1 1 1 1 2 2 1
3 4 5 4 4 4 3 4 4 4 5 5 5 5 5 5 5 5 4 4 4 3 3 3 3 2 2 2 3 2 1 1 1 0 -1 1 1 0
4 5 5 5 5 5 5 5 4 4 5 5 5 5 5 5 4 4 4 5 4 3 3 3 3 2 2 2 1 0 1 0 0 -0 -1 0 -0 -0
4 4 4 4 4 4 4 4 4 4 4 4 4 4 4 4 4 4 4 4 4 2 3 3 2 2 1 1 1 0 -0 -0 -1 -1 -0 -0 -0 -0
4 4 3 3 4 4 4 4 4 4 4 3 3 3 4 4 3 4 4 4 3 3 2 3 1 2 1 1 0 -0 -1 -1 -2 -1 -1 -1 -2 -2
3 4 4 4 4 4 4 4 4 4 4 3 3 3 3 3 3 3 3 3 3 2 2 2 1 1 1 0 -0 -1 -2 -2 -1 -2 -2 -2 -2 -2
2 3 3 3 3 4 4 4 4 4 4 3 3 3 3 3 3 3 3 2 2 2 2 2 1 1 1 -0 -1 -2 -2 -2 -2 -2 -3 -3 -3 -2
2 2 2 3 3 4 4 3 3 3 3 3 3 3 3 3 2 2 2 2 1 1 1 0 0 0 -1 -2 -2 -3 -3 -3 -3 -3 -3 -4 -3 -3
1 2 2 2 2 2 2 3 3 2 3 3 3 3 3 3 3 2 2 1 1 1 0 0 -0 -1 -2 -2 -3 -3 -3 -4 -4 -4 -4 -4 -4 -4
1 1 1 1 1 2 2 2 2 2 2 2 2 2 2 2 2 2 2 1 0 -1 0 -1 -2 -2 -3 -4 -4 -5 -5 -4 -4 -5 -4 -4 -4 -5
-0 -0 0 1 0 1 1 1 2 2 2 2 2 2 2 3 2 2 0 0 0 -1 -1 -2 -3 -3 -4 -4 -6 -6 -5 -5 -5 -5 -5 -5 -6 -6
-1 -1 -1 -1 -1 -1 -0 1 1 1 2 2 1 2 2 2 2 1 0 -0 -0 -1 -2 -3 -4 -4 -5 -7 -6 -6 -5 -6 -6 -6 -7 -7 -7 -7
-2 -2 -2 -2 -2 -1 -1 -1 -0 -0 0 0 1 1 1 2 2 -0 -0 -1 -1 -2 -4 -5 -5 -6 -9 -8 -6 -6 -7 -7 -7 -8 -8 -8 -8 -8
-4 -3 -3 -3 -3 -3 -2 -2 -2 -1 -1 -0 0 1 1 1 -1 -1 -2 -2 -2 -3 -4 -5 -7 -9 -9 -7 -7 -7 -7 -7 -8 -9 -9 -10 -10 -10
-5 -4 -5 -4 -4 -4 -4 -3 -3 -3 -2 -2 -2 -1 -0 -1 -2 -3 -3 -3 -3 -4 -5 -6 -10 -10 -8 -7 -7 -7 -8 -8 -9 -10 -10 -11 -11 -10
-4 -5 -6 -6 -5 -5 -4 -4 -4 -4 -4 -5 -4 -4 -4 -3 -2 -3 -4 -5 -4 -5 -5 -8 -10 -8 -8 -8 -8 -8 -9 -9 -10 -10 -10 -10 -10 -10
-5 -6 -7 -7 -7 -7 -6 -5 -5 -5 -6 -5 -5 -5 -4 -5 -4 -4 -5 -6 -6 -6 -6 -10 -8 -8 -8 -9 -9 -9 -9 -10 -10 -11 -11 -10 -10 -10
-7 -7 -8 -7 -7 -7 -7 -7 -6 -6 -6 -5 -6 -6 -7 -7 -6 -6 -7 -7 -7 -8 -9 -9 -8 -9 -9 -9 -9 -9 -10 -10 -11 -11 -11 -11 -11 -11
-7 -8 -8 -8 -7 -7 -7 -7 -7 -6 -7 -6 -6 -7 -8 -8 -8 -8 -8 -8 -9 -10 -9 -8 -9 -9 -9 -10 -10 -10 -10 -11 -11 -11 -12 -11 -11 -11
-8 -8 -8 -8 -8 -8 -8 -7 -7 -7 -7 -7 -8 -8 -9 -9 -9 -9 -10 -11 -11 -10 -9 -9 -9 -9 -10 -10 -11 -11 -11 -12 -12 -12 -12 -12 -12 -12
Height
3135 3137 3135 3139 3138 3139 3139 3138 3134 3132 3133 3133 3134 3136 3135 3133 3129 3125 3122 3120 3116 3116 3114 3112 3112 3105 3103 3099 3099 3096 3094 3091 3086 3083 3079 3074 3069 3064
3124 3126 3126 3126 3125 3126 3128 3127 3126 3121 3118 3123 3124 3124 3123 3121 3119 3117 3114 3110 3108 3105 3103 3102 3101 3097 3096 3093 3091 3087 3085 3081 3077 3074 3070 3065 3058 3054
3112 3114 3115 3116 3115 3116 3116 3118 3117 3113 3111 3113 3111 3111 3109 3109 3107 3106 3102 3099 3099 3097 3093 3090 3089 3087 3084 3082 3080 3078 3075 3074 3070 3066 3060 3055 3050 3044
3101 3102 3105 3105 3102 3109 3105 3107 3106 3106 3104 3101 3100 3099 3099 3098 3095 3095 3094 3091 3090 3086 3080 3080 3078 3077 3074 3075 3071 3067 3064 3062 3059 3055 3051 3046 3039 3033
3085 3093 3094 3089 3093 3094 3096 3096 3097 3096 3094 3091 3090 3089 3087 3086 3085 3083 3083 3081 3079 3077 3072 3070 3067 3066 3066 3066 3061 3057 3052 3051 3050 3046 3040 3035 3030 3025
3082 3083 3084 3083 3083 3086 3087 3086 3086 3085 3084 3082 3080 3077 3076 3074 3074 3073 3071 3070 3066 3066 3064 3060 3057 3056 3056 3055 3052 3046 3042 3036 3037 3033 3030 3026 3019 3013
3069 3071 3073 3075 3076 3076 3076 3075 3074 3074 3073 3071 3069 3067 3065 3064 3063 3061 3061 3059 3057 3055 3055 3050 3046 3044 3045 3043 3041 3038 3035 3032 3029 3023 3019 3015 3010 3004
3059 3059 3061 3062 3063 3064 3065 3063 3062 3062 3061 3059 3058 3056 3056 3055 3052 3051 3049 3048 3046 3044 3042 3041 3039 3037 3034 3032 3032 3029 3024 3021 3018 3015 3010 3005 3000 2994
3048 3049 3050 3050 3049 3050 3050 3050 3049 3048 3047 3048 3046 3046 3045 3045 3042 3039 3039 3038 3036 3033 3031 3029 3028 3027 3027 3023 3021 3019 3016 3013 3009 3005 3002 2998 2993 2987
3035 3037 3038 3038 3038 3038 3038 3038 3037 3037 3036 3035 3034 3034 3034 3033 3032 3031 3029 3027 3024 3023 3021 3019 3018 3017 3015 3014 3012 3010 3007 3005 3002 2999 2995 2991 2987 2979
3022 3023 3025 3026 3026 3025 3026 3026 3025 3026 3025 3023 3023 3023 3024 3023 3021 3021 3019 3016 3013 3012 3010 3009 3007 3006 3006 3004 3003 3002 3000 2997 2995 2992 2988 2984 2980 2973
3008 3009 3009 3010 3011 3012 3013 3014 3014 3013 3012 3012 3013 3014 3013 3012 3011 3008 3007 3005 3004 3000 3001 2999 2997 2998 2997 2996 2996 2995 2993 2990 2987 2984 2983 2980 2975 2969
2990 2992 2995 2996 2997 2998 3000 3000 3002 3002 3002 3001 3001 3000 2999 2998 2998 2997 2994 2993 2993 2993 2991 2990 2990 2989 2989 2989 2989 2989 2987 2985 2982 2980 2978 2975 2970 2965
2976 2977 2979 2979 2981 2982 2983 2985 2987 2989 2990 2989 2988 2988 2986 2986 2987 2984 2982 2982 2981 2983 2982 2981 2981 2981 2982 2982 2983 2983 2982 2982 2981 2977 2973 2970 2967 2963
2962 2963 2964 2966 2967 2968 2969 2969 2972 2975 2976 2977 2976 2975 2975 2974 2973 2973 2973 2970 2969 2971 2972 2972 2973 2974 2975 2977 2979 2980 2979 2979 2977 2973 2971 2968 2964 2961
2948 2949 2951 2952 2953 2954 2955 2956 2957 2961 2962 2963 2963 2963 2963 2962 2959 2963 2961 2959 2958 2961 2964 2966 2967 2968 2970 2973 2975 2976 2976 2975 2972 2970 2968 2966 2963 2960
2934 2935 2938 2939 2940 2940 2941 2942 2943 2946 2948 2950 2954 2948 2950 2951 2950 2949 2951 2950 2950 2951 2955 2958 2960 2964 2967 2971 2972 2972 2971 2970 2971 2968 2965 2964 2962 2960
2919 2921 2924 2927 2928 2929 2930 2930 2930 2933 2934 2938 2941 2935 2937 2938 2941 2942 2940 2940 2941 2944 2949 2953 2957 2962 2965 2967 2968 2967 2967 2967 2967 2966 2965 2963 2962 2961
2906 2909 2914 2916 2917 2917 2920 2919 2921 2920 2925 2931 2929 2924 2927 2927 2931 2933 2935 2934 2934 2935 2942 2948 2955 2959 2960 2962 2965 2964 2964 2965 2965 2964 2963 2962 2962 2961
2892 2898 2905 2908 2908 2909 2909 2909 2910 2912 2917 2921 2918 2916 2919 2920 2923 2926 2928 2928 2931 2930 2934 2945 2951 2954 2955 2959 2961 2962 2961 2962 2962 2961 2961 2961 2961 2960
2882 2889 2896 2899 2900 2901 2902 2903 2904 2905 2906 2910 2914 2912 2912 2913 2917 2921 2923 2924 2927 2929 2929 2942 2946 2950 2953 2955 2957 2959 2960 2959 2958 2959 2960 2960 2961 2961
2871 2879 2886 2889 2891 2893 2894 2896 2897 2897 2899 2901 2903 2905 2906 2909 2913 2917 2919 2921 2924 2928 2932 2938 2943 2947 2949 2951 2954 2956 2956 2956 2957 2958 2958 2960 2962 2961
2861 2869 2875 2879 2882 2885 2887 2889 2890 2890 2892 2895 2896 2899 2903 2907 2909 2914 2916 2920 2927 2929 2932 2937 2941 2944 2946 2948 2951 2953 2954 2955 2956 2956 2958 2960 2961 2962
Wind_Speed
48 49 50 46 48 46 44 39 36 37 38 37 40 32 36 39 34 31 34 36 37 36 39 38 40 39 37 45 43 41 44 42 39 40 42 42 43 45
51 53 54 48 41 39 44 48 44 51 47 36 42 43 40 37 32 32 38 38 37 36 35 35 22 32 40 46 49 43 45 43 43 43 43 44 44 46
51 56 49 49 45 51 44 49 48 43 45 46 45 42 41 37 34 36 40 37 39 40 39 29 33 31 40 43 44 44 49 43 46 45 44 45 46 46
37 41 48 68 70 64 41 53 43 42 45 46 48 44 43 39 34 36 40 38 41 43 47 41 38 29 37 44 45 50 51 46 47 47 47 47 48 47
31 33 32 25 29 30 36 40 43 42 42 46 48 46 43 40 35 33 37 41 42 37 38 38 37 39 35 42 45 53 51 46 50 50 49 49 48 47
37 36 33 31 34 37 44 45 42 42 42 44 44 43 41 38 37 36 39 40 42 38 42 39 42 39 42 48 54 57 56 53 53 49 47 46 45 45
37 35 38 40 42 43 44 45 45 45 42 41 40 40 40 39 38 43 40 38 38 39 44 43 41 44 40 46 47 52 52 50 47 41 41 43 43 43
41 44 43 43 43 44 44 45 45 44 43 40 40 40 39 42 41 43 42 39 41 41 37 34 45 43 50 43 44 50 42 37 35 39 37 36 38 42
39 40 40 38 38 38 39 41 41 42 43 43 44 44 43 40 43 43 41 38 37 37 34 37 39 41 45 46 43 43 38 33 35 32 32 35 38 41
40 41 40 40 38 38 38 39 39 40 41 42 41 40 41 42 40 40 40 37 37 35 34 36 38 41 39 42 40 37 30 30 28 29 30 33 36 41
45 42 42 41 41 42 43 42 41 41 41 39 39 39 40 41 40 36 41 37 34 33 33 34 35 37 37 36 34 27 26 23 26 28 29 32 35 37
48 49 48 46 44 43 42 42 42 43 44 43 44 45 42 41 42 38 37 37 33 35 33 33 30 33 33 29 23 21 19 21 24 26 29 31 31 30
53 50 50 51 50 48 46 44 43 42 40 39 39 38 37 38 37 38 36 35 35 38 31 30 31 30 26 22 17 16 17 20 22 25 28 28 25 20
50 51 52 51 52 52 49 45 44 43 41 37 36 34 32 33 35 35 35 30 31 37 30 30 28 24 23 20 12 11 14 17 20 22 24 23 19 10
44 46 46 45 46 47 49 49 49 48 45 42 37 36 35 32 32 32 31 32 31 30 28 25 24 22 18 9 9 9 12 13 15 16 16 16 16 8
43 42 40 39 39 41 41 44 46 46 43 42 41 36 37 33 30 29 29 28 27 26 24 24 23 18 11 9 8 9 8 9 11 10 11 14 14 4
44 44 39 36 36 36 36 36 38 41 42 39 39 38 37 35 31 27 25 25 24 23 23 24 18 13 9 9 8 6 6 6 5 6 10 13 11 8
45 44 38 32 32 33 32 33 36 40 40 37 35 36 35 32 29 26 25 25 24 23 25 23 14 12 12 9 7 5 4 3 0 2 5 8 7 6
45 43 36 28 28 31 31 30 31 34 35 30 30 28 26 27 29 28 24 22 23 22 22 17 13 15 11 9 8 7 5 4 4 4 4 4 4 2
45 40 31 25 25 26 26 26 27 27 28 30 30 27 27 29 27 26 25 23 23 23 21 17 16 14 13 10 7 7 6 6 6 5 3 1 1 2
41 36 29 26 25 24 24 23 21 23 25 26 33 31 29 27 27 27 27 25 25 23 20 18 17 15 12 11 9 7 8 7 6 5 4 3 1 1
39 37 33 29 27 26 25 24 21 24 29 28 31 33 30 27 28 29 28 27 25 23 20 18 16 15 14 12 9 8 7 7 6 6 5 4 3 1
38 36 35 33 32 30 28 26 23 25 27 25 28 28 26 28 30 28 28 25 21 19 18 16 15 14 14 13 12 9 8 8 6 5 5 6 4 3
Wind_Direction
252 251 252 254 262 265 269 275 283 278 269 276 282 285 280 278 280 287 290 291 293 292 280 288 297 297 268 269 280 283 289 294 294 298 302 304 301 301
261 256 255 254 257 269 271 275 276 276 280 284 282 282 286 277 281 291 289 291 299 289 282 279 289 288 277 280 281 282 283 287 292 294 299 299 297 299
257 266 261 258 255 262 272 266 272 278 279 281 278 278 277 275 290 300 292 280 277 288 288 268 274 284 276 274 276 278 277 288 291 291 294 296 296 297
268 282 268 260 267 261 291 278 282 279 280 281 277 275 275 281 287 292 287 282 281 277 289 285 279 291 274 271 278 274 279 280 285 287 290 290 291 296
262 264 275 292 287 288 277 277 276 277 277 276 275 276 278 283 284 287 287 290 282 282 282 288 279 285 277 273 280 276 273 277 281 285 284 287 293 301
261 265 269 274 274 272 273 272 272 274 273 272 271 275 281 283 283 288 293 292 288 287 286 281 284 296 284 285 280 290 275 271 279 285 284 289 300 309
263 268 271 271 268 270 271 272 274 273 269 267 270 272 273 276 286 292 289 292 286 277 286 288 294 289 287 285 288 294 295 289 289 285 287 300 308 308
272 269 265 265 267 269 269 270 271 271 271 270 273 273 276 282 285 288 290 286 281 279 279 282 290 282 284 290 299 291 291 288 285 288 300 306 310 314
271 268 267 267 268 269 271 272 272 272 272 273 275 278 280 279 284 288 287 284 282 282 280 278 284 283 291 288 293 292 288 284 287 297 305 311 317 318
267 268 269 268 267 270 269 269 272 272 273 275 276 276 277 279 281 283 282 283 287 285 282 280 284 289 281 290 288 285 280 282 296 305 314 321 324 327
268 267 268 268 268 268 267 267 266 269 273 275 276 276 277 276 279 271 276 282 279 283 281 283 288 280 280 281 281 275 279 292 302 313 323 326 328 329
260 264 264 265 266 266 267 267 269 271 271 271 274 274 275 274 279 283 273 281 277 279 285 285 277 273 273 274 265 273 285 300 314 324 324 328 333 338
263 263 263 263 263 263 264 264 266 267 267 267 268 271 274 276 278 279 276 274 279 274 277 269 271 267 263 253 255 274 301 312 318 320 325 334 343 350
270 268 265 264 264 264 263 263 265 266 265 263 264 268 269 272 274 280 282 274 277 274 272 266 261 253 242 243 261 284 301 309 314 323 331 343 356 3
271 270 271 270 269 266 263 262 262 263 265 264 264 266 267 268 272 277 273 271 272 265 260 251 245 236 230 239 256 289 296 302 316 329 344 356 7 17
271 272 271 269 268 268 267 264 264 263 262 263 262 262 262 261 264 267 266 265 266 256 247 240 227 217 206 228 249 260 279 305 322 336 357 18 24 48
268 272 273 274 271 268 264 260 258 257 258 259 259 256 255 259 256 259 260 257 251 240 236 225 202 194 203 225 232 247 286 304 317 359 23 32 31 50
263 270 272 271 268 264 263 259 253 250 248 247 244 245 251 252 251 253 245 249 242 235 234 213 187 193 205 208 222 234 239 230 205 71 63 57 39 61
257 260 264 269 268 264 262 261 259 257 249 250 237 241 241 242 240 240 238 233 232 234 229 189 179 199 192 207 212 199 195 180 170 144 101 72 63 48
249 249 255 258 259 262 264 265 265 257 250 247 239 230 234 234 233 233 225 226 229 220 196 166 193 194 190 188 195 188 179 176 162 144 158 141 38 4
242 242 242 249 254 260 266 268 267 256 234 251 247 234 231 227 226 220 218 212 211 185 164 180 187 185 186 183 180 181 179 161 147 160 170 150 219 336
232 232 234 241 246 255 262 265 268 250 239 239 237 235 232 226 217 213 209 197 174 166 169 179 185 186 181 172 169 173 161 149 151 166 160 166 182 129
225 228 232 237 243 251 258 262 261 261 245 243 240 231 232 218 205 204 189 164 163 165 171 181 185 183 173 167 159 160 149 142 144 139 157 176 167 145